Fremont, NE

6:16 PM CDT on April 26, 2018 (GMT -0500)
Fremont Municipal

Weather History for KFET - December, 2014

Change the Weather History Date:

Thursday, December 4, 2014

  Actual Average Record
Temperature  
Mean Temperature 34 °F -  
Max Temperature 42 °F 40 °F 62 °F (1979)
Min Temperature 26 °F 20 °F -2 °F (2005)
Degree Days  
Heating Degree Days 31    
Moisture  
Dew Point 21 °F    
Average Humidity 63    
Maximum Humidity 91    
Minimum Humidity 46    
Precipitation  
Precipitation 0.00 in - - ()
Sea Level Pressure  
Sea Level Pressure 30.13 in    
Wind  
Wind Speed 9 mph (SE)    
Max Wind Speed 14 mph    
Max Gust Speed 17 mph    
Visibility 10 miles    
Events      
Averages and records for this station are not official NWS values.
T = Trace of Precipitation, MM = Missing Value Source: NWS Daily Summary

Daily Weather History Graph

Daily Weather History Graph

Search for Another Location

Airport or City:

Astronomy

Dec. 04, 2014 Rise Set
Actual Time 7:35 AM CST 4:56 PM CST
Civil Twilight 7:04 AM CST 5:27 PM CST
Nautical Twilight 6:30 AM CST 6:02 PM CST
Astronomical Twilight 5:56 AM CST 6:35 PM CST
Moon 4:00 PM CST (12/4) 5:27 AM CST (12/4)
Length of Visible Light 10h 22m
Length of Day
9h 20m
Waxing Gibbous, 97% of the Moon is Illuminated
Dec 4
Waxing Gibbous
Dec 6
Full
Dec 14
Last Quarter
Dec 21
New
Dec 28
First Quarter

Hourly Weather History & Observations

Time (CST) Temp. Windchill Dew Point Humidity Pressure Visibility Wind Dir Wind Speed Gust Speed Precip Events Conditions
12:15 AM 31.8 °F 24.6 °F 14.7 °F 49% 30.26 in 10.0 mi ESE 8.1 mph - N/A   Clear
12:35 AM 31.6 °F 25.1 °F 14.7 °F 50% 30.25 in 10.0 mi East 6.9 mph - N/A   Scattered Clouds
12:55 AM 31.1 °F 23.7 °F 14.7 °F 51% 30.24 in 10.0 mi ESE 8.1 mph - N/A   Clear
1:15 AM 30.7 °F 22.0 °F 14.5 °F 51% 30.23 in 10.0 mi ESE 10.4 mph - N/A   Scattered Clouds
1:35 AM 30.6 °F 23.1 °F 14.4 °F 51% 30.23 in 10.0 mi ESE 8.1 mph - N/A   Clear
1:55 AM 29.3 °F 20.8 °F 14.0 °F 53% 30.22 in 10.0 mi ESE 9.2 mph - N/A   Clear
2:15 AM 28.8 °F 21.7 °F 14.5 °F 55% 30.23 in 10.0 mi ESE 6.9 mph - N/A   Clear
2:35 AM 28.2 °F 21.0 °F 14.5 °F 57% 30.23 in 10.0 mi ESE 6.9 mph - N/A   Clear
2:55 AM 27.7 °F 18.8 °F 14.4 °F 57% 30.23 in 10.0 mi ESE 9.2 mph - N/A   Clear
3:15 AM 28.0 °F 19.3 °F 14.4 °F 57% 30.23 in 10.0 mi ESE 9.2 mph - N/A   Clear
3:35 AM 27.3 °F 20.9 °F 14.5 °F 59% 30.23 in 10.0 mi SE 5.8 mph - N/A   Clear
3:55 AM 26.6 °F 20.0 °F 14.9 °F 61% 30.23 in 10.0 mi ESE 5.8 mph - N/A   Clear
4:15 AM 26.4 °F 18.0 °F 14.7 °F 61% 30.21 in 10.0 mi ESE 8.1 mph - N/A   Clear
4:35 AM 26.1 °F 16.8 °F 14.9 °F 63% 30.20 in 10.0 mi ESE 9.2 mph - N/A   Clear
4:55 AM 26.1 °F 16.2 °F 14.9 °F 63% 30.19 in 10.0 mi ESE 10.4 mph - N/A   Clear
5:15 AM 26.4 °F 16.6 °F 15.1 °F 62% 30.20 in 10.0 mi SE 10.4 mph - N/A   Clear
5:35 AM 26.2 °F 17.1 °F 15.4 °F 64% 30.20 in 10.0 mi SE 9.2 mph - N/A   Clear
5:55 AM 26.2 °F 16.4 °F 16.2 °F 66% 30.19 in 10.0 mi SE 10.4 mph - N/A   Clear
6:15 AM 26.2 °F 15.8 °F 16.2 °F 66% 30.19 in 10.0 mi ESE 11.5 mph - N/A   Clear
6:35 AM 26.2 °F 16.4 °F 16.3 °F 66% 30.18 in 10.0 mi SE 10.4 mph - N/A   Clear
6:55 AM 26.1 °F 16.8 °F 16.5 °F 67% 30.18 in 10.0 mi ESE 9.2 mph - N/A   Clear
7:15 AM 26.2 °F 16.4 °F 16.3 °F 66% 30.18 in 10.0 mi SE 10.4 mph - N/A   Clear
7:35 AM 26.1 °F 16.2 °F 16.3 °F 67% 30.17 in 10.0 mi SE 10.4 mph - N/A   Clear
7:55 AM 26.1 °F 16.2 °F 16.5 °F 67% 30.17 in 10.0 mi ESE 10.4 mph - N/A   Clear
8:15 AM 26.2 °F 17.8 °F 16.7 °F 67% 30.18 in 10.0 mi SE 8.1 mph - N/A   Clear
8:35 AM 27.0 °F 18.7 °F 16.7 °F 65% 30.19 in 10.0 mi SE 8.1 mph - N/A   Clear
8:55 AM 27.9 °F 16.8 °F 16.7 °F 63% 30.17 in 10.0 mi SE 13.8 mph - N/A   Clear
9:15 AM 28.4 °F 17.5 °F 16.7 °F 62% 30.18 in 10.0 mi SE 13.8 mph - N/A   Clear
9:35 AM 29.3 °F 21.5 °F 17.4 °F 61% 30.19 in 10.0 mi SSE 8.1 mph - N/A   Clear
9:55 AM 30.9 °F 21.2 °F 18.1 °F 59% 30.18 in 10.0 mi SSE 12.7 mph 17.3 mph N/A   Clear
10:15 AM 32.0 °F 23.0 °F 18.7 °F 58% 30.18 in 10.0 mi SSE 11.5 mph - N/A   Clear
10:35 AM 33.6 °F 25.6 °F 19.6 °F 56% 30.18 in 10.0 mi SSE 10.4 mph - N/A   Clear
10:55 AM 33.4 °F 24.8 °F 19.8 °F 57% 30.18 in 10.0 mi SSE 11.5 mph - N/A   Clear
11:35 AM 35.2 °F 27.1 °F 20.7 °F 55% 30.16 in 10.0 mi SSE 11.5 mph - N/A   Clear
11:55 AM 36.3 °F 28.9 °F 21.2 °F 54% 30.14 in 10.0 mi SSE 10.4 mph - N/A   Clear
12:15 PM 36.7 °F 29.9 °F 21.2 °F 54% 30.13 in 10.0 mi SSE 9.2 mph - N/A   Clear
12:35 PM 37.8 °F 30.2 °F 21.9 °F 53% 30.11 in 10.0 mi SSE 11.5 mph - N/A   Clear
12:55 PM 37.4 °F 30.3 °F 21.7 °F 53% 30.10 in 10.0 mi SSE 10.4 mph - N/A   Clear
1:15 PM 37.9 °F 31.5 °F 22.1 °F 53% 30.08 in 10.0 mi SSE 9.2 mph - N/A   Clear
1:35 PM 37.8 °F 30.7 °F 22.1 °F 53% 30.07 in 10.0 mi SE 10.4 mph - N/A   Clear
1:55 PM 38.3 °F 31.4 °F 22.5 °F 53% 30.06 in 10.0 mi SSE 10.4 mph - N/A   Clear
2:15 PM 39.2 °F 33.0 °F 22.8 °F 52% 30.05 in 10.0 mi SSE 9.2 mph - N/A   Clear
2:35 PM 39.6 °F 33.0 °F 23.0 °F 52% 30.05 in 10.0 mi SE 10.4 mph - N/A   Clear
2:55 PM 40.6 °F 36.0 °F 23.9 °F 51% 30.04 in 10.0 mi SE 6.9 mph - N/A   Clear
3:15 PM 41.9 °F 36.3 °F 23.9 °F 49% 30.04 in 10.0 mi SE 9.2 mph - N/A   Clear
3:35 PM 42.8 °F 37.0 °F 23.4 °F 46% 30.04 in 10.0 mi SSE 10.4 mph - N/A   Clear
3:55 PM 42.3 °F 37.3 °F 23.4 °F 47% 30.04 in 10.0 mi SSE 8.1 mph - N/A   Clear
4:15 PM 41.2 °F 35.5 °F 23.2 °F 49% 30.03 in 10.0 mi SSE 9.2 mph - N/A   Clear
4:35 PM 40.1 °F 34.1 °F 23.7 °F 52% 30.04 in 10.0 mi SE 9.2 mph - N/A   Clear
4:55 PM 38.8 °F 32.6 °F 23.9 °F 55% 30.04 in 10.0 mi SE 9.2 mph - N/A   Clear
5:15 PM 38.3 °F 31.9 °F 24.4 °F 57% 30.04 in 10.0 mi SE 9.2 mph - N/A   Clear
5:35 PM 37.8 °F 31.3 °F 24.6 °F 59% 30.04 in 10.0 mi SSE 9.2 mph - N/A   Clear
5:55 PM 37.4 °F 30.8 °F 25.0 °F 61% 30.04 in 10.0 mi SSE 9.2 mph - N/A   Clear
6:15 PM 36.7 °F 29.9 °F 25.5 °F 64% 30.04 in 10.0 mi SSE 9.2 mph - N/A   Clear
6:35 PM 36.5 °F 29.2 °F 25.7 °F 65% 30.04 in 10.0 mi SSE 10.4 mph - N/A   Clear
6:55 PM 35.8 °F 29.4 °F 26.2 °F 68% 30.04 in 10.0 mi SE 8.1 mph - N/A   Clear
7:15 PM 35.4 °F 29.0 °F 26.6 °F 70% 30.04 in 10.0 mi SSE 8.1 mph - N/A   Clear
7:35 PM 35.1 °F 27.4 °F 27.5 °F 74% 30.04 in 10.0 mi SSE 10.4 mph - N/A   Clear
7:55 PM 34.9 °F 26.2 °F 27.7 °F 75% 30.04 in 10.0 mi SSE 12.7 mph 17.3 mph N/A   Clear
8:15 PM 34.3 °F 25.9 °F 27.9 °F 77% 30.05 in 10.0 mi SE 11.5 mph - N/A   Clear
8:35 PM 34.2 °F 26.2 °F 28.4 °F 79% 30.04 in 10.0 mi SSE 10.4 mph - N/A   Clear
8:55 PM 33.8 °F 26.4 °F 28.6 °F 81% 30.04 in 10.0 mi SSE 9.2 mph - N/A   Clear
9:15 PM 33.4 °F 25.4 °F 28.8 °F 83% 30.05 in 10.0 mi SSE 10.4 mph - N/A   Clear
9:35 PM 33.3 °F 25.1 °F 28.9 °F 84% 30.05 in 10.0 mi SSE 10.4 mph - N/A   Clear
9:55 PM 33.1 °F 25.5 °F 29.1 °F 85% 30.05 in 7.0 mi SSE 9.2 mph - N/A   Clear
10:15 PM 32.9 °F 25.9 °F 29.1 °F 86% 30.05 in 7.0 mi SSE 8.1 mph - N/A   Clear
10:35 PM 32.9 °F 26.7 °F 29.3 °F 87% 30.05 in 7.0 mi SE 6.9 mph - N/A   Clear
10:55 PM 32.2 °F 25.0 °F 29.3 °F 89% 30.04 in 7.0 mi SE 8.1 mph - N/A   Clear
11:35 PM 32.4 °F 24.6 °F 29.8 °F 90% 30.04 in 7.0 mi SE 9.2 mph - N/A   Clear
11:55 PM 32.4 °F 25.3 °F 30.0 °F 91% 30.04 in 7.0 mi SE 8.1 mph - N/A   Clear